owner,sensor,date,latitude,longitude,vertical_datum,wind_speed,wind_to_direction,wind_speed_of_gust,qcFlag 
WAVCIS,ioos:station:WAVCIS:CSI15:1,2012-10-01T00:00:00Z,28.8332,-90.8320,10.0,12.89,212.0,,'11111222,11111222,99999999' 
WAVCIS,ioos:station:WAVCIS:CSI15:1,2012-10-01T01:00:00Z,28.8332,-90.8320,10.0,12.76,207.0,,'11111222,11111222,99999999' 
WAVCIS,ioos:station:WAVCIS:CSI15:1,2012-10-01T02:00:00Z,28.8332,-90.8320,10.0,13.0,207.0,,'11111222,11111222,99999999' 
WAVCIS,ioos:station:WAVCIS:CSI15:1,2012-10-01T03:00:00Z,28.8332,-90.8320,10.0,13.91,217.0,,'11111222,11111222,99999999' 
WAVCIS,ioos:station:WAVCIS:CSI15:1,2012-10-01T04:00:00Z,28.8332,-90.8320,10.0,10.53,232.0,,'11111222,11111222,99999999' 
WAVCIS,ioos:station:WAVCIS:CSI15:1,2012-10-01T05:00:00Z,28.8332,-90.8320,10.0,12.58,253.0,,'11111222,11111222,99999999' 
WAVCIS,ioos:station:WAVCIS:CSI15:1,2012-10-01T06:00:00Z,28.8332,-90.8320,10.0,11.6,245.0,,'11111222,11111222,99999999' 
WAVCIS,ioos:station:WAVCIS:CSI15:1,2012-10-01T07:00:00Z,28.8332,-90.8320,10.0,11.04,250.0,,'11111222,11111222,99999999' 
WAVCIS,ioos:station:WAVCIS:CSI15:1,2012-10-01T08:00:00Z,28.8332,-90.8320,10.0,12.42,260.0,,'11111222,11111222,99999999' 
WAVCIS,ioos:station:WAVCIS:CSI15:1,2012-10-01T09:00:00Z,28.8332,-90.8320,10.0,11.73,277.0,,'11111222,11111222,99999999' 
WAVCIS,ioos:station:WAVCIS:CSI15:1,2012-10-01T10:00:00Z,28.8332,-90.8320,10.0,11.27,264.0,,'11111222,11111222,99999999' 
WAVCIS,ioos:station:WAVCIS:CSI15:1,2012-10-01T11:00:00Z,28.8332,-90.8320,10.0,13.06,265.0,,'11111222,11111222,99999999' 
WAVCIS,ioos:station:WAVCIS:CSI15:1,2012-10-01T12:00:00Z,28.8332,-90.8320,10.0,13.46,261.0,,'11111222,11111222,99999999' 
WAVCIS,ioos:station:WAVCIS:CSI15:1,2012-10-01T13:00:00Z,28.8332,-90.8320,10.0,13.99,266.0,,'11111222,11111222,99999999' 
WAVCIS,ioos:station:WAVCIS:CSI15:1,2012-10-01T14:00:00Z,28.8332,-90.8320,10.0,12.25,266.0,,'11111222,11111222,99999999' 
WAVCIS,ioos:station:WAVCIS:CSI15:1,2012-10-01T15:00:00Z,28.8332,-90.8320,10.0,11.67,285.0,,'11111222,11111222,99999999' 
WAVCIS,ioos:station:WAVCIS:CSI15:1,2012-10-01T16:00:00Z,28.8332,-90.8320,10.0,10.27,276.0,,'11111222,11111222,99999999' 
WAVCIS,ioos:station:WAVCIS:CSI15:1,2012-10-01T17:00:00Z,28.8332,-90.8320,10.0,8.3,294.0,,'11111222,11111222,99999999' 
WAVCIS,ioos:station:WAVCIS:CSI15:1,2012-10-01T18:00:00Z,28.8332,-90.8320,10.0,9.03,277.0,,'11111222,11111222,99999999' 
WAVCIS,ioos:station:WAVCIS:CSI15:1,2012-10-01T19:00:00Z,28.8332,-90.8320,10.0,9.98,280.0,,'11111222,11111222,99999999' 
WAVCIS,ioos:station:WAVCIS:CSI15:1,2012-10-01T20:00:00Z,28.8332,-90.8320,10.0,10.84,286.0,,'11111222,11111222,99999999' 
WAVCIS,ioos:station:WAVCIS:CSI15:1,2012-10-01T21:00:00Z,28.8332,-90.8320,10.0,11.39,291.0,,'11111222,11111222,99999999' 
WAVCIS,ioos:station:WAVCIS:CSI15:1,2012-10-01T22:00:00Z,28.8332,-90.8320,10.0,9.18,284.0,,'11111222,11111222,99999999' 
WAVCIS,ioos:station:WAVCIS:CSI15:1,2012-10-01T23:00:00Z,28.8332,-90.8320,10.0,9.18,286.0,,'11111222,11111222,99999999' 
WAVCIS,ioos:station:WAVCIS:CSI15:1,2012-10-02T00:00:00Z,28.8332,-90.8320,10.0,7.09,277.0,,'11111222,11111222,99999999' 
WAVCIS,ioos:station:WAVCIS:CSI15:1,2012-10-02T01:00:00Z,28.8332,-90.8320,10.0,8.02,279.0,,'11111222,11111222,99999999' 
WAVCIS,ioos:station:WAVCIS:CSI15:1,2012-10-02T02:00:00Z,28.8332,-90.8320,10.0,4.934,300.0,,'11111222,11111222,99999999' 
WAVCIS,ioos:station:WAVCIS:CSI15:1,2012-10-02T03:00:00Z,28.8332,-90.8320,10.0,7.73,350.0,,'11111222,11111222,99999999' 
WAVCIS,ioos:station:WAVCIS:CSI15:1,2012-10-02T04:00:00Z,28.8332,-90.8320,10.0,6.491,354.0,,'11111222,11111222,99999999' 
WAVCIS,ioos:station:WAVCIS:CSI15:1,2012-10-02T05:00:00Z,28.8332,-90.8320,10.0,6.455,335.0,,'11111222,11111222,99999999' 
WAVCIS,ioos:station:WAVCIS:CSI15:1,2012-10-02T06:00:00Z,28.8332,-90.8320,10.0,5.433,330.0,,'11111222,11111222,99999999' 
WAVCIS,ioos:station:WAVCIS:CSI15:1,2012-10-02T07:00:00Z,28.8332,-90.8320,10.0,4.486,335.0,,'11111222,11111222,99999999' 
WAVCIS,ioos:station:WAVCIS:CSI15:1,2012-10-02T08:00:00Z,28.8332,-90.8320,10.0,2.737,347.0,,'11111222,11111222,99999999' 
WAVCIS,ioos:station:WAVCIS:CSI15:1,2012-10-02T09:00:00Z,28.8332,-90.8320,10.0,3.536,310.0,,'11111222,11111222,99999999' 
WAVCIS,ioos:station:WAVCIS:CSI15:1,2012-10-02T10:00:00Z,28.8332,-90.8320,10.0,4.588,319.0,,'11111222,11111222,99999999' 
WAVCIS,ioos:station:WAVCIS:CSI15:1,2012-10-02T11:00:00Z,28.8332,-90.8320,10.0,3.885,327.0,,'11111222,11111222,99999999' 
WAVCIS,ioos:station:WAVCIS:CSI15:1,2012-10-02T12:00:00Z,28.8332,-90.8320,10.0,3.146,323.0,,'11111222,11111222,99999999' 
WAVCIS,ioos:station:WAVCIS:CSI15:1,2012-10-02T13:00:00Z,28.8332,-90.8320,10.0,2.863,354.0,,'11111222,11111222,99999999' 
WAVCIS,ioos:station:WAVCIS:CSI15:1,2012-10-02T14:00:00Z,28.8332,-90.8320,10.0,1.936,22.0,,'11111222,11111222,99999999' 
WAVCIS,ioos:station:WAVCIS:CSI15:1,2012-10-02T15:00:00Z,28.8332,-90.8320,10.0,1.95,28.0,,'11111222,11111222,99999999' 
WAVCIS,ioos:station:WAVCIS:CSI15:1,2012-10-02T16:00:00Z,28.8332,-90.8320,10.0,2.674,27.0,,'11111222,11111222,99999999' 
WAVCIS,ioos:station:WAVCIS:CSI15:1,2012-10-02T17:00:00Z,28.8332,-90.8320,10.0,3.517,55.0,,'11111222,11111222,99999999' 
WAVCIS,ioos:station:WAVCIS:CSI15:1,2012-10-02T18:00:00Z,28.8332,-90.8320,10.0,3.057,71.0,,'11111222,11111222,99999999' 
WAVCIS,ioos:station:WAVCIS:CSI15:1,2012-10-02T19:00:00Z,28.8332,-90.8320,10.0,3.565,67.0,,'11111222,11111222,99999999' 
WAVCIS,ioos:station:WAVCIS:CSI15:1,2012-10-02T20:00:00Z,28.8332,-90.8320,10.0,3.127,76.0,,'11111222,11111222,99999999' 
WAVCIS,ioos:station:WAVCIS:CSI15:1,2012-10-02T21:00:00Z,28.8332,-90.8320,10.0,3.226,108.0,,'11111222,11111222,99999999' 
WAVCIS,ioos:station:WAVCIS:CSI15:1,2012-10-02T22:00:00Z,28.8332,-90.8320,10.0,3.825,98.0,,'11111222,11111222,99999999' 
WAVCIS,ioos:station:WAVCIS:CSI15:1,2012-10-02T23:00:00Z,28.8332,-90.8320,10.0,3.155,94.0,,'11111222,11111222,99999999' 
WAVCIS,ioos:station:WAVCIS:CSI15:1,2012-10-03T00:00:00Z,28.8332,-90.8320,10.0,3.704,101.0,,'11111222,11111222,99999999' 
WAVCIS,ioos:station:WAVCIS:CSI15:1,2012-10-03T01:00:00Z,28.8332,-90.8320,10.0,3.99,97.0,,'11111222,11111222,99999999' 
WAVCIS,ioos:station:WAVCIS:CSI15:1,2012-10-03T02:00:00Z,28.8332,-90.8320,10.0,3.361,108.0,,'11111222,11111222,99999999' 
WAVCIS,ioos:station:WAVCIS:CSI15:1,2012-10-03T03:00:00Z,28.8332,-90.8320,10.0,3.475,110.0,,'11111222,11111222,99999999' 
WAVCIS,ioos:station:WAVCIS:CSI15:1,2012-10-03T04:00:00Z,28.8332,-90.8320,10.0,5.032,122.0,,'11111222,11111222,99999999' 
WAVCIS,ioos:station:WAVCIS:CSI15:1,2012-10-03T05:00:00Z,28.8332,-90.8320,10.0,4.397,129.0,,'11111222,11111222,99999999' 
WAVCIS,ioos:station:WAVCIS:CSI15:1,2012-10-03T06:00:00Z,28.8332,-90.8320,10.0,4.035,128.0,,'11111222,11111222,99999999' 
WAVCIS,ioos:station:WAVCIS:CSI15:1,2012-10-03T07:00:00Z,28.8332,-90.8320,10.0,4.461,131.0,,'11111222,11111222,99999999' 
WAVCIS,ioos:station:WAVCIS:CSI15:1,2012-10-03T08:00:00Z,28.8332,-90.8320,10.0,3.643,126.0,,'11111222,11111222,99999999' 
WAVCIS,ioos:station:WAVCIS:CSI15:1,2012-10-03T09:00:00Z,28.8332,-90.8320,10.0,9.92,313.0,,'11111222,11111222,99999999' 
WAVCIS,ioos:station:WAVCIS:CSI15:1,2012-10-03T10:00:00Z,28.8332,-90.8320,10.0,7.18,317.0,,'11111222,11111222,99999999' 
WAVCIS,ioos:station:WAVCIS:CSI15:1,2012-10-03T11:00:00Z,28.8332,-90.8320,10.0,2.912,341.0,,'11111222,11111222,99999999' 
WAVCIS,ioos:station:WAVCIS:CSI15:1,2012-10-03T12:00:00Z,28.8332,-90.8320,10.0,1.758,47.0,,'11111222,11111222,99999999' 
WAVCIS,ioos:station:WAVCIS:CSI15:1,2012-10-03T13:00:00Z,28.8332,-90.8320,10.0,4.385,81.0,,'11111222,11111222,99999999' 
WAVCIS,ioos:station:WAVCIS:CSI15:1,2012-10-03T14:00:00Z,28.8332,-90.8320,10.0,3.009,81.0,,'11111222,11111222,99999999' 
WAVCIS,ioos:station:WAVCIS:CSI15:1,2012-10-03T15:00:00Z,28.8332,-90.8320,10.0,2.812,84.0,,'11111222,11111222,99999999' 
WAVCIS,ioos:station:WAVCIS:CSI15:1,2012-10-03T16:00:00Z,28.8332,-90.8320,10.0,5.848,80.0,,'11111222,11111222,99999999' 
WAVCIS,ioos:station:WAVCIS:CSI15:1,2012-10-03T17:00:00Z,28.8332,-90.8320,10.0,3.492,93.0,,'11111222,11111222,99999999' 
WAVCIS,ioos:station:WAVCIS:CSI15:1,2012-10-03T18:00:00Z,28.8332,-90.8320,10.0,4.931,98.0,,'11111222,11111222,99999999' 
WAVCIS,ioos:station:WAVCIS:CSI15:1,2012-10-03T19:00:00Z,28.8332,-90.8320,10.0,6.65,109.0,,'11111222,11111222,99999999' 
WAVCIS,ioos:station:WAVCIS:CSI15:1,2012-10-03T20:00:00Z,28.8332,-90.8320,10.0,3.357,116.0,,'11111222,11111222,99999999' 
WAVCIS,ioos:station:WAVCIS:CSI15:1,2012-10-03T21:00:00Z,28.8332,-90.8320,10.0,3.282,97.0,,'11111222,11111222,99999999' 
WAVCIS,ioos:station:WAVCIS:CSI15:1,2012-10-03T22:00:00Z,28.8332,-90.8320,10.0,3.426,101.0,,'11111222,11111222,99999999' 
WAVCIS,ioos:station:WAVCIS:CSI15:1,2012-10-03T23:00:00Z,28.8332,-90.8320,10.0,2.802,82.0,,'11111222,11111222,99999999' 
WAVCIS,ioos:station:WAVCIS:CSI15:1,2012-10-04T00:00:00Z,28.8332,-90.8320,10.0,3.894,93.0,,'11111222,11111222,99999999' 
WAVCIS,ioos:station:WAVCIS:CSI15:1,2012-10-04T01:00:00Z,28.8332,-90.8320,10.0,3.586,89.0,,'11111222,11111222,99999999' 
WAVCIS,ioos:station:WAVCIS:CSI15:1,2012-10-04T02:00:00Z,28.8332,-90.8320,10.0,3.71,88.0,,'11111222,11111222,99999999' 
WAVCIS,ioos:station:WAVCIS:CSI15:1,2012-10-04T03:00:00Z,28.8332,-90.8320,10.0,6.789,71.0,,'11111222,11111222,99999999' 
WAVCIS,ioos:station:WAVCIS:CSI15:1,2012-10-04T04:00:00Z,28.8332,-90.8320,10.0,5.688,76.0,,'11111222,11111222,99999999' 
WAVCIS,ioos:station:WAVCIS:CSI15:1,2012-10-04T05:00:00Z,28.8332,-90.8320,10.0,4.438,88.0,,'11111222,11111222,99999999' 
WAVCIS,ioos:station:WAVCIS:CSI15:1,2012-10-04T06:00:00Z,28.8332,-90.8320,10.0,4.636,92.0,,'11111222,11111222,99999999' 
WAVCIS,ioos:station:WAVCIS:CSI15:1,2012-10-04T07:00:00Z,28.8332,-90.8320,10.0,5.214,92.0,,'11111222,11111222,99999999' 
WAVCIS,ioos:station:WAVCIS:CSI15:1,2012-10-04T08:00:00Z,28.8332,-90.8320,10.0,4.754,91.0,,'11111222,11111222,99999999' 
WAVCIS,ioos:station:WAVCIS:CSI15:1,2012-10-04T09:00:00Z,28.8332,-90.8320,10.0,3.822,98.0,,'11111222,11111222,99999999' 
WAVCIS,ioos:station:WAVCIS:CSI15:1,2012-10-04T10:00:00Z,28.8332,-90.8320,10.0,2.83,92.0,,'11111222,11111222,99999999' 
WAVCIS,ioos:station:WAVCIS:CSI15:1,2012-10-04T11:00:00Z,28.8332,-90.8320,10.0,3.535,91.0,,'11111222,11111222,99999999' 
WAVCIS,ioos:station:WAVCIS:CSI15:1,2012-10-04T12:00:00Z,28.8332,-90.8320,10.0,2.13,84.0,,'11111222,11111222,99999999' 
WAVCIS,ioos:station:WAVCIS:CSI15:1,2012-10-04T13:00:00Z,28.8332,-90.8320,10.0,2.642,34.0,,'11111222,11111222,99999999' 
WAVCIS,ioos:station:WAVCIS:CSI15:1,2012-10-04T14:00:00Z,28.8332,-90.8320,10.0,5.284,24.0,,'11111222,11111222,99999999' 
WAVCIS,ioos:station:WAVCIS:CSI15:1,2012-10-04T15:00:00Z,28.8332,-90.8320,10.0,3.152,61.0,,'11111222,11111222,99999999' 
WAVCIS,ioos:station:WAVCIS:CSI15:1,2012-10-04T16:00:00Z,28.8332,-90.8320,10.0,0.461,90.0,,'11111222,11111222,99999999' 
WAVCIS,ioos:station:WAVCIS:CSI15:1,2012-10-04T17:00:00Z,28.8332,-90.8320,10.0,1.441,84.0,,'11111222,11111222,99999999' 
WAVCIS,ioos:station:WAVCIS:CSI15:1,2012-10-04T18:00:00Z,28.8332,-90.8320,10.0,1.741,67.0,,'11111222,11111222,99999999' 
WAVCIS,ioos:station:WAVCIS:CSI15:1,2012-10-04T19:00:00Z,28.8332,-90.8320,10.0,2.227,68.0,,'11111222,11111222,99999999' 
WAVCIS,ioos:station:WAVCIS:CSI15:1,2012-10-04T20:00:00Z,28.8332,-90.8320,10.0,1.839,65.0,,'11111222,11111222,99999999' 
WAVCIS,ioos:station:WAVCIS:CSI15:1,2012-10-04T21:00:00Z,28.8332,-90.8320,10.0,1.287,60.0,,'11111222,11111222,99999999' 
WAVCIS,ioos:station:WAVCIS:CSI15:1,2012-10-04T22:00:00Z,28.8332,-90.8320,10.0,3.212,56.0,,'11111222,11111222,99999999' 
WAVCIS,ioos:station:WAVCIS:CSI15:1,2012-10-04T23:00:00Z,28.8332,-90.8320,10.0,3.279,64.0,,'11111222,11111222,99999999' 
WAVCIS,ioos:station:WAVCIS:CSI15:1,2012-10-05T00:00:00Z,28.8332,-90.8320,10.0,3.423,78.0,,'11111222,11111222,99999999' 
WAVCIS,ioos:station:WAVCIS:CSI15:1,2012-10-05T01:00:00Z,28.8332,-90.8320,10.0,4.301,72.0,,'11111222,11111222,99999999' 
WAVCIS,ioos:station:WAVCIS:CSI15:1,2012-10-05T02:00:00Z,28.8332,-90.8320,10.0,3.742,61.0,,'11111222,11111222,99999999' 
WAVCIS,ioos:station:WAVCIS:CSI15:1,2012-10-05T03:00:00Z,28.8332,-90.8320,10.0,4.153,60.0,,'11111222,11111222,99999999' 
WAVCIS,ioos:station:WAVCIS:CSI15:1,2012-10-05T04:00:00Z,28.8332,-90.8320,10.0,4.658,80.0,,'11111222,11111222,99999999' 
WAVCIS,ioos:station:WAVCIS:CSI15:1,2012-10-05T05:00:00Z,28.8332,-90.8320,10.0,4.864,83.0,,'11111222,11111222,99999999' 
WAVCIS,ioos:station:WAVCIS:CSI15:1,2012-10-05T06:00:00Z,28.8332,-90.8320,10.0,4.162,81.0,,'11111222,11111222,99999999' 
WAVCIS,ioos:station:WAVCIS:CSI15:1,2012-10-05T07:00:00Z,28.8332,-90.8320,10.0,3.503,75.0,,'11111222,11111222,99999999' 
WAVCIS,ioos:station:WAVCIS:CSI15:1,2012-10-05T08:00:00Z,28.8332,-90.8320,10.0,3.667,61.0,,'11111222,11111222,99999999' 
WAVCIS,ioos:station:WAVCIS:CSI15:1,2012-10-05T09:00:00Z,28.8332,-90.8320,10.0,4.204,58.0,,'11111222,11111222,99999999' 
WAVCIS,ioos:station:WAVCIS:CSI15:1,2012-10-05T10:00:00Z,28.8332,-90.8320,10.0,4.087,33.0,,'11111222,11111222,99999999' 
WAVCIS,ioos:station:WAVCIS:CSI15:1,2012-10-05T11:00:00Z,28.8332,-90.8320,10.0,4.911,37.0,,'11111222,11111222,99999999' 
WAVCIS,ioos:station:WAVCIS:CSI15:1,2012-10-05T12:00:00Z,28.8332,-90.8320,10.0,4.973,19.0,,'11111222,11111222,99999999' 
WAVCIS,ioos:station:WAVCIS:CSI15:1,2012-10-05T13:00:00Z,28.8332,-90.8320,10.0,5.601,24.0,,'11111222,11111222,99999999' 
WAVCIS,ioos:station:WAVCIS:CSI15:1,2012-10-05T14:00:00Z,28.8332,-90.8320,10.0,6.365,33.0,,'11111222,11111222,99999999' 
WAVCIS,ioos:station:WAVCIS:CSI15:1,2012-10-05T15:00:00Z,28.8332,-90.8320,10.0,5.34,29.0,,'11111222,11111222,99999999' 
WAVCIS,ioos:station:WAVCIS:CSI15:1,2012-10-05T16:00:00Z,28.8332,-90.8320,10.0,4.615,28.0,,'11111222,11111222,99999999' 
WAVCIS,ioos:station:WAVCIS:CSI15:1,2012-10-05T17:00:00Z,28.8332,-90.8320,10.0,3.598,30.0,,'11111222,11111222,99999999' 
WAVCIS,ioos:station:WAVCIS:CSI15:1,2012-10-05T18:00:00Z,28.8332,-90.8320,10.0,3.503,31.0,,'11111222,11111222,99999999' 
WAVCIS,ioos:station:WAVCIS:CSI15:1,2012-10-05T19:00:00Z,28.8332,-90.8320,10.0,2.946,31.0,,'11111222,11111222,99999999' 
WAVCIS,ioos:station:WAVCIS:CSI15:1,2012-10-05T20:00:00Z,28.8332,-90.8320,10.0,3.448,22.0,,'11111222,11111222,99999999' 
WAVCIS,ioos:station:WAVCIS:CSI15:1,2012-10-05T21:00:00Z,28.8332,-90.8320,10.0,2.62,46.0,,'11111222,11111222,99999999' 
WAVCIS,ioos:station:WAVCIS:CSI15:1,2012-10-05T22:00:00Z,28.8332,-90.8320,10.0,1.896,52.0,,'11111222,11111222,99999999' 
WAVCIS,ioos:station:WAVCIS:CSI15:1,2012-10-05T23:00:00Z,28.8332,-90.8320,10.0,1.453,43.0,,'11111222,11111222,99999999' 
WAVCIS,ioos:station:WAVCIS:CSI15:1,2012-10-06T00:00:00Z,28.8332,-90.8320,10.0,1.157,59.0,,'11111222,11111222,99999999' 
WAVCIS,ioos:station:WAVCIS:CSI15:1,2012-10-06T01:00:00Z,28.8332,-90.8320,10.0,1.513,67.0,,'11111222,11111222,99999999' 
WAVCIS,ioos:station:WAVCIS:CSI15:1,2012-10-06T02:00:00Z,28.8332,-90.8320,10.0,1.101,77.0,,'11111222,11111222,99999999' 
WAVCIS,ioos:station:WAVCIS:CSI15:1,2012-10-06T03:00:00Z,28.8332,-90.8320,10.0,1.491,51.0,,'11111222,11111222,99999999' 
WAVCIS,ioos:station:WAVCIS:CSI15:1,2012-10-06T04:00:00Z,28.8332,-90.8320,10.0,1.361,60.0,,'11111222,11111222,99999999' 
WAVCIS,ioos:station:WAVCIS:CSI15:1,2012-10-06T05:00:00Z,28.8332,-90.8320,10.0,1.859,73.0,,'11111222,11111222,99999999' 
WAVCIS,ioos:station:WAVCIS:CSI15:1,2012-10-06T06:00:00Z,28.8332,-90.8320,10.0,1.543,51.0,,'11111222,11111222,99999999' 
WAVCIS,ioos:station:WAVCIS:CSI15:1,2012-10-06T07:00:00Z,28.8332,-90.8320,10.0,1.286,349.0,,'11111222,11111222,99999999' 
WAVCIS,ioos:station:WAVCIS:CSI15:1,2012-10-06T08:00:00Z,28.8332,-90.8320,10.0,2.03,345.0,,'11111222,11111222,99999999' 
WAVCIS,ioos:station:WAVCIS:CSI15:1,2012-10-06T09:00:00Z,28.8332,-90.8320,10.0,2.73,325.0,,'11111222,11111222,99999999' 
WAVCIS,ioos:station:WAVCIS:CSI15:1,2012-10-06T10:00:00Z,28.8332,-90.8320,10.0,3.089,353.0,,'11111222,11111222,99999999' 
WAVCIS,ioos:station:WAVCIS:CSI15:1,2012-10-06T11:00:00Z,28.8332,-90.8320,10.0,3.318,0.0,,'11111222,11111222,99999999' 
WAVCIS,ioos:station:WAVCIS:CSI15:1,2012-10-06T12:00:00Z,28.8332,-90.8320,10.0,3.395,4.0,,'11111222,11111222,99999999' 
WAVCIS,ioos:station:WAVCIS:CSI15:1,2012-10-06T13:00:00Z,28.8332,-90.8320,10.0,4.273,351.0,,'11111222,11111222,99999999' 
WAVCIS,ioos:station:WAVCIS:CSI15:1,2012-10-06T14:00:00Z,28.8332,-90.8320,10.0,4.59,346.0,,'11111222,11111222,99999999' 
WAVCIS,ioos:station:WAVCIS:CSI15:1,2012-10-06T15:00:00Z,28.8332,-90.8320,10.0,4.692,351.0,,'11111222,11111222,99999999' 
WAVCIS,ioos:station:WAVCIS:CSI15:1,2012-10-06T16:00:00Z,28.8332,-90.8320,10.0,3.964,1.0,,'11111222,11111222,99999999' 
WAVCIS,ioos:station:WAVCIS:CSI15:1,2012-10-06T17:00:00Z,28.8332,-90.8320,10.0,3.728,13.0,,'11111222,11111222,99999999' 
WAVCIS,ioos:station:WAVCIS:CSI15:1,2012-10-06T18:00:00Z,28.8332,-90.8320,10.0,3.597,19.0,,'11111222,11111222,99999999' 
WAVCIS,ioos:station:WAVCIS:CSI15:1,2012-10-06T19:00:00Z,28.8332,-90.8320,10.0,3.797,9.0,,'11111222,11111222,99999999' 
WAVCIS,ioos:station:WAVCIS:CSI15:1,2012-10-06T20:00:00Z,28.8332,-90.8320,10.0,2.687,39.0,,'11111222,11111222,99999999' 
WAVCIS,ioos:station:WAVCIS:CSI15:1,2012-10-06T21:00:00Z,28.8332,-90.8320,10.0,2.408,45.0,,'11111222,11111222,99999999' 
WAVCIS,ioos:station:WAVCIS:CSI15:1,2012-10-06T22:00:00Z,28.8332,-90.8320,10.0,2.908,83.0,,'11111222,11111222,99999999' 
WAVCIS,ioos:station:WAVCIS:CSI15:1,2012-10-06T23:00:00Z,28.8332,-90.8320,10.0,3.795,96.0,,'11111222,11111222,99999999' 
WAVCIS,ioos:station:WAVCIS:CSI15:1,2012-10-07T00:00:00Z,28.8332,-90.8320,10.0,2.241,112.0,,'11111222,11111222,99999999' 
WAVCIS,ioos:station:WAVCIS:CSI15:1,2012-10-07T01:00:00Z,28.8332,-90.8320,10.0,0.509,56.0,,'11111222,11111222,99999999' 
WAVCIS,ioos:station:WAVCIS:CSI15:1,2012-10-07T02:00:00Z,28.8332,-90.8320,10.0,0.499,25.0,,'11111222,11111222,99999999' 
WAVCIS,ioos:station:WAVCIS:CSI15:1,2012-10-07T03:00:00Z,28.8332,-90.8320,10.0,0.725,29.0,,'11111222,11111222,99999999' 
WAVCIS,ioos:station:WAVCIS:CSI15:1,2012-10-07T04:00:00Z,28.8332,-90.8320,10.0,1.475,341.0,,'11111222,11111222,99999999' 
WAVCIS,ioos:station:WAVCIS:CSI15:1,2012-10-07T05:00:00Z,28.8332,-90.8320,10.0,3.337,357.0,,'11111222,11111222,99999999' 
WAVCIS,ioos:station:WAVCIS:CSI15:1,2012-10-07T06:00:00Z,28.8332,-90.8320,10.0,4.782,357.0,,'11111222,11111222,99999999' 
WAVCIS,ioos:station:WAVCIS:CSI15:1,2012-10-07T07:00:00Z,28.8332,-90.8320,10.0,9.16,1.0,,'11111222,11111222,99999999' 
WAVCIS,ioos:station:WAVCIS:CSI15:1,2012-10-07T08:00:00Z,28.8332,-90.8320,10.0,11.33,350.0,,'11111222,11111222,99999999' 
WAVCIS,ioos:station:WAVCIS:CSI15:1,2012-10-07T09:00:00Z,28.8332,-90.8320,10.0,11.38,355.0,,'11111222,11111222,99999999' 
WAVCIS,ioos:station:WAVCIS:CSI15:1,2012-10-07T10:00:00Z,28.8332,-90.8320,10.0,10.76,2.0,,'11111222,11111222,99999999' 
WAVCIS,ioos:station:WAVCIS:CSI15:1,2012-10-07T11:00:00Z,28.8332,-90.8320,10.0,11.35,354.0,,'11111222,11111222,99999999' 
WAVCIS,ioos:station:WAVCIS:CSI15:1,2012-10-07T12:00:00Z,28.8332,-90.8320,10.0,8.96,4.0,,'11111222,11111222,99999999' 
WAVCIS,ioos:station:WAVCIS:CSI15:1,2012-10-07T13:00:00Z,28.8332,-90.8320,10.0,8.8,2.0,,'11111222,11111222,99999999' 
WAVCIS,ioos:station:WAVCIS:CSI15:1,2012-10-07T14:00:00Z,28.8332,-90.8320,10.0,8.74,11.0,,'11111222,11111222,99999999' 
WAVCIS,ioos:station:WAVCIS:CSI15:1,2012-10-07T15:00:00Z,28.8332,-90.8320,10.0,10.23,2.0,,'11111222,11111222,99999999' 
WAVCIS,ioos:station:WAVCIS:CSI15:1,2012-10-07T16:00:00Z,28.8332,-90.8320,10.0,9.64,1.0,,'11111222,11111222,99999999' 
WAVCIS,ioos:station:WAVCIS:CSI15:1,2012-10-07T17:00:00Z,28.8332,-90.8320,10.0,8.82,11.0,,'11111222,11111222,99999999' 
WAVCIS,ioos:station:WAVCIS:CSI15:1,2012-10-07T18:00:00Z,28.8332,-90.8320,10.0,7.67,16.0,,'11111222,11111222,99999999' 
WAVCIS,ioos:station:WAVCIS:CSI15:1,2012-10-07T19:00:00Z,28.8332,-90.8320,10.0,6.929,8.0,,'11111222,11111222,99999999' 
WAVCIS,ioos:station:WAVCIS:CSI15:1,2012-10-07T20:00:00Z,28.8332,-90.8320,10.0,6.991,8.0,,'11111222,11111222,99999999' 
WAVCIS,ioos:station:WAVCIS:CSI15:1,2012-10-07T21:00:00Z,28.8332,-90.8320,10.0,6.729,5.0,,'11111222,11111222,99999999' 
WAVCIS,ioos:station:WAVCIS:CSI15:1,2012-10-07T22:00:00Z,28.8332,-90.8320,10.0,7.0,8.0,,'11111222,11111222,99999999' 
WAVCIS,ioos:station:WAVCIS:CSI15:1,2012-10-07T23:00:00Z,28.8332,-90.8320,10.0,7.01,5.0,,'11111222,11111222,99999999' 
WAVCIS,ioos:station:WAVCIS:CSI15:1,2012-10-08T00:00:00Z,28.8332,-90.8320,10.0,8.42,12.0,,'11111222,11111222,99999999' 
WAVCIS,ioos:station:WAVCIS:CSI15:1,2012-10-08T01:00:00Z,28.8332,-90.8320,10.0,8.46,12.0,,'11111222,11111222,99999999' 
WAVCIS,ioos:station:WAVCIS:CSI15:1,2012-10-08T02:00:00Z,28.8332,-90.8320,10.0,10.0,11.0,,'11111222,11111222,99999999' 
WAVCIS,ioos:station:WAVCIS:CSI15:1,2012-10-08T03:00:00Z,28.8332,-90.8320,10.0,10.55,0.0,,'11111222,11111222,99999999' 
WAVCIS,ioos:station:WAVCIS:CSI15:1,2012-10-08T04:00:00Z,28.8332,-90.8320,10.0,9.46,4.0,,'11111222,11111222,99999999' 
WAVCIS,ioos:station:WAVCIS:CSI15:1,2012-10-08T05:00:00Z,28.8332,-90.8320,10.0,8.85,12.0,,'11111222,11111222,99999999' 
WAVCIS,ioos:station:WAVCIS:CSI15:1,2012-10-08T06:00:00Z,28.8332,-90.8320,10.0,8.11,0.0,,'11111222,11111222,99999999' 
WAVCIS,ioos:station:WAVCIS:CSI15:1,2012-10-08T07:00:00Z,28.8332,-90.8320,10.0,8.77,348.0,,'11111222,11111222,99999999' 
WAVCIS,ioos:station:WAVCIS:CSI15:1,2012-10-08T08:00:00Z,28.8332,-90.8320,10.0,7.89,352.0,,'11111222,11111222,99999999' 
WAVCIS,ioos:station:WAVCIS:CSI15:1,2012-10-08T09:00:00Z,28.8332,-90.8320,10.0,7.26,4.0,,'11111222,11111222,99999999' 
WAVCIS,ioos:station:WAVCIS:CSI15:1,2012-10-08T10:00:00Z,28.8332,-90.8320,10.0,6.009,10.0,,'11111222,11111222,99999999' 
WAVCIS,ioos:station:WAVCIS:CSI15:1,2012-10-08T11:00:00Z,28.8332,-90.8320,10.0,5.646,0.0,,'11111222,11111222,99999999' 
WAVCIS,ioos:station:WAVCIS:CSI15:1,2012-10-08T12:00:00Z,28.8332,-90.8320,10.0,7.4,339.0,,'11111222,11111222,99999999' 
WAVCIS,ioos:station:WAVCIS:CSI15:1,2012-10-08T13:00:00Z,28.8332,-90.8320,10.0,7.03,346.0,,'11111222,11111222,99999999' 
WAVCIS,ioos:station:WAVCIS:CSI15:1,2012-10-08T14:00:00Z,28.8332,-90.8320,10.0,8.0,350.0,,'11111222,11111222,99999999' 
WAVCIS,ioos:station:WAVCIS:CSI15:1,2012-10-08T15:00:00Z,28.8332,-90.8320,10.0,8.25,346.0,,'11111222,11111222,99999999' 
WAVCIS,ioos:station:WAVCIS:CSI15:1,2012-10-08T16:00:00Z,28.8332,-90.8320,10.0,8.66,344.0,,'11111222,11111222,99999999' 
WAVCIS,ioos:station:WAVCIS:CSI15:1,2012-10-08T17:00:00Z,28.8332,-90.8320,10.0,9.23,349.0,,'11111222,11111222,99999999' 
WAVCIS,ioos:station:WAVCIS:CSI15:1,2012-10-08T18:00:00Z,28.8332,-90.8320,10.0,5.792,0.0,,'11111222,11111222,99999999' 
WAVCIS,ioos:station:WAVCIS:CSI15:1,2012-10-08T19:00:00Z,28.8332,-90.8320,10.0,5.574,352.0,,'11111222,11111222,99999999' 
WAVCIS,ioos:station:WAVCIS:CSI15:1,2012-10-08T20:00:00Z,28.8332,-90.8320,10.0,4.105,1.0,,'11111222,11111222,99999999' 
WAVCIS,ioos:station:WAVCIS:CSI15:1,2012-10-08T21:00:00Z,28.8332,-90.8320,10.0,4.013,359.0,,'11111222,11111222,99999999' 
WAVCIS,ioos:station:WAVCIS:CSI15:1,2012-10-08T22:00:00Z,28.8332,-90.8320,10.0,3.803,334.0,,'11111222,11111222,99999999' 
WAVCIS,ioos:station:WAVCIS:CSI15:1,2012-10-08T23:00:00Z,28.8332,-90.8320,10.0,3.313,347.0,,'11111222,11111222,99999999' 
WAVCIS,ioos:station:WAVCIS:CSI15:1,2012-10-09T00:00:00Z,28.8332,-90.8320,10.0,3.818,5.0,,'11111222,11111222,99999999' 
WAVCIS,ioos:station:WAVCIS:CSI15:1,2012-10-09T01:00:00Z,28.8332,-90.8320,10.0,4.439,11.0,,'11111222,11111222,99999999' 
WAVCIS,ioos:station:WAVCIS:CSI15:1,2012-10-09T02:00:00Z,28.8332,-90.8320,10.0,4.985,355.0,,'11111222,11111222,99999999' 
WAVCIS,ioos:station:WAVCIS:CSI15:1,2012-10-09T03:00:00Z,28.8332,-90.8320,10.0,6.349,20.0,,'11111222,11111222,99999999' 
WAVCIS,ioos:station:WAVCIS:CSI15:1,2012-10-09T04:00:00Z,28.8332,-90.8320,10.0,6.271,9.0,,'11111222,11111222,99999999' 
WAVCIS,ioos:station:WAVCIS:CSI15:1,2012-10-09T05:00:00Z,28.8332,-90.8320,10.0,5.66,15.0,,'11111222,11111222,99999999' 
WAVCIS,ioos:station:WAVCIS:CSI15:1,2012-10-09T06:00:00Z,28.8332,-90.8320,10.0,5.435,19.0,,'11111222,11111222,99999999' 